Regional Weather Roundup
Issued by NWS Nashville, TN

Home | Current Version | Previous Version | Text Only | Print | Product List | Glossary On
Versions: 1 2 3 4 5 6 7 8 9 10 11 12 13 14 15 16 17 18 19 20 21 22 23 24 25 26 27 28 29 30 31 32 33 34 35 36 37 38 39 40 41 42 43 44 45 46 47 48 49 50
000
ASUS44 KOHX 061010
RWROHX
MIDDLE TENNESSEE HOURLY WEATHER ROUNDUP
NATIONAL WEATHER SERVICE NASHVILLE TN
400 AM CST TUE DEC 06 2016

NOTE: "FAIR" INDICATES FEW OR NO CLOUDS BELOW 12,000 FEET WITH
NO SIGNIFICANT WEATHER AND/OR OBSTRUCTIONS TO VISIBILITY.

* THESE REPORTS ARE NOT UNDER NWS QUALITY CONTROL AND MAY NOT
  REPORT WEATHER SUCH AS PRECIPITATION AND FOG.


TNZ005>011-023>034-057-059-062>066-078-080-061100
...NORTHERN MIDDLE TENNESSEE...

CITY           SKY/WX    TMP DP  RH WIND       PRES   REMARKS
CLARKSVILLE    CLOUDY    46  44  93 E5        29.63F
CROSSVILLE     HVY RAIN  51  50  96 S10G22    29.74F VSB 1
LEBANON        CLOUDY    49  48  96 NW7       29.65F
NASHVILLE      RAIN      50  48  93 NE6       29.66R FOG
SMYRNA         RAIN      53  52  96 NW6       29.67R
WEST NASHVILLE CLOUDY    46  46 100 E9        29.63F
$$
TNZ056-058-060-061-075>077-079-093>097-061100
...SOUTHERN MIDDLE TENNESSEE...

CITY           SKY/WX    TMP DP  RH WIND       PRES   REMARKS
COLUMBIA       PTCLDY   N/A N/A N/A SE6       29.56F
MCMINNVILLE    CLOUDY    55  55 100 CALM      29.71F
MURFREESBORO   CLOUDY    55  55 100 SE12      29.64F
SHELBYVILLE    CLOUDY    55  55 100 E9        29.68F
TULLAHOMA      CLOUDY    52  52 100 CALM      29.69F
WINCHESTER     CLOUDY    54  52  94 NE8       29.67F
$$


...KEY TO REMARKS...
VSB - VISIBILITY IN MILES
WCI - WIND CHILL INDEX
HX  - HEAT INDEX




USA.gov is the U.S. government's official web portal to all federal, state and local government web resources and services.